EW8803 Weather Reports


time (UTC)temp
C
wind
direction
speed
KPH
gust
KPH
rain 1hr
cm
rain 24hr
cm
rain mn
cm
humidity
%
barometer
mb
20260507123541 17 214 11.3 30.6 0.00 0.00 0.00 48 1009.7
20260507123027 17 238 14.5 29.0 0.00 0.00 0.00 48 1009.7
20260507122619 17 210 17.7 29.0 0.00 0.00 0.00 49 1008.2
20260507122104 17 298 24.1 27.4 0.00 0.00 0.00 48 1008.2
20260507121533 18 256 16.1 25.7 0.00 0.00 0.00 48 1009.9
20260507121041 18 267 14.5 22.5 0.00 0.00 0.00 47 1009.9
20260507120625 18 267 12.9 20.9 0.00 0.00 0.00 45 1008.3
20260507120041 18 243 14.5 27.4 0.00 0.00 0.00 45 1010.0
20260507115609 18 251 12.9 30.6 0.00 0.00 0.00 44 1008.5
20260507115033 18 231 17.7 30.6 0.00 0.00 0.00 43 1010.0
20260507114548 19 245 12.9 27.4 0.00 0.00 0.00 43 1009.9
20260507114043 18 276 12.9 24.1 0.00 0.00 0.00 42 1009.9
20260507113538 19 274 14.5 30.6 0.00 0.00 0.00 42 1009.9
20260507113040 19 237 20.9 30.6 0.00 0.00 0.00 41 1010.0
20260507112533 19 243 8.0 24.1 0.00 0.00 0.00 41 1010.0
20260507112029 20 218 8.0 17.7 0.00 0.00 0.00 38 1010.0
20260507111525 20 194 4.8 24.1 0.00 0.00 0.00 40 1010.1
20260507110522 19 210 0.0 16.1 0.00 0.00 0.00 43 1010.1
20260507110046 19 312 11.3 17.7 0.00 0.00 0.00 41 1010.1
20260507105542 19 187 4.8 17.7 0.00 0.00 0.00 44 1010.0
20260507105039 18 268 3.2 9.7 0.00 0.00 0.00 46 1010.0
20260507104540 18 205 8.0 11.3 0.00 0.00 0.00 46 1010.1
20260507104055 18 311 4.8 11.3 0.00 0.00 0.00 49 1010.1
20260507102534 17 276 1.6 11.3 0.00 0.00 0.00 51 1010.3
20260507101539 17 245 11.3 20.9 0.00 0.00 0.00 50 1010.4
20260507101100 17 243 6.4 19.3 0.00 0.00 0.00 52 1010.4
20260507100524 17 276 11.3 19.3 0.00 0.00 0.00 52 1010.5
20260507100044 18 230 11.3 17.7 0.00 0.00 0.00 51 1010.6
20260507095535 17 197 11.3 17.7 0.00 0.00 0.00 52 1010.6
20260507095118 17 290 1.6 14.5 0.00 0.00 0.00 55 1008.9
20260507094534 17 274 8.0 17.7 0.00 0.00 0.00 55 1010.5
20260507094120 17 315 3.2 17.7 0.00 0.00 0.00 56 1008.8
20260507093520 17 274 8.0 11.3 0.00 0.00 0.00 55 1010.3
20260507093034 17 271 1.6 9.7 0.00 0.00 0.00 58 1010.4
20260507092521 16 283 6.4 11.3 0.00 0.00 0.00 58 1010.4
20260507092042 16 278 8.0 14.5 0.00 0.00 0.00 57 1010.5
20260507091534 16 325 6.4 14.5 0.00 0.00 0.00 59 1010.5
20260507091038 16 298 4.8 12.9 0.00 0.00 0.00 61 1010.5
20260507090542 15 277 4.8 12.9 0.00 0.00 0.00 61 1010.6
20260507090105 15 279 6.4 12.9 0.00 0.00 0.00 62 1010.6
20260507085038 15 311 4.8 11.3 0.00 0.00 0.00 65 1010.6
20260507084611 14 238 6.4 9.7 0.00 0.00 0.00 68 1008.9
20260507084020 13 274 6.4 9.7 0.00 0.00 0.00 68 1010.6
20260507083621 13 242 6.4 9.7 0.00 0.00 0.00 69 1009.1
20260507083028 13 270 3.2 8.0 0.00 0.00 0.00 70 1010.8
20260507082530 13 301 0.0 4.8 0.00 0.00 0.00 70 1010.8
20260507081558 12 283 1.6 11.3 0.00 0.00 0.00 71 1010.7
20260507081035 12 248 4.8 14.5 0.00 0.00 0.00 73 1010.7
20260507080543 12 293 8.0 14.5 0.00 0.00 0.00 68 1010.7
20260507080048 12 110 0.0 0.0 0.00 0.00 0.00 76 1010.8
20260507075541 12 209 0.0 3.2 0.00 0.00 0.00 77 1010.7
20260507075021 12 138 0.0 4.8 0.00 0.00 0.00 77 1010.7
20260507074527 12 155 0.0 6.4 0.00 0.00 0.00 77 1010.7
20260507074024 12 107 4.8 6.4 0.00 0.00 0.00 75 1010.7
20260507073601 12 166 0.0 4.8 0.00 0.00 0.00 74 1010.5
20260507073030 12 135 0.0 6.4 0.00 0.00 0.00 74 1010.3
20260507071047 12 64 1.6 4.8 0.00 0.00 0.00 77 1010.1
20260507070604 12 263 1.6 4.8 0.00 0.00 0.00 78 1010.1
20260507070106 11 335 0.0 3.2 0.00 0.00 0.00 79 1010.0
20260507065038 11 273 1.6 3.2 0.00 0.00 0.00 80 1009.9
20260507064604 11 127 0.0 3.2 0.00 0.00 0.00 81 1009.9
20260507064040 11 78 0.0 3.2 0.00 0.00 0.00 81 1009.9
20260507063523 11 49 0.0 4.8 0.00 0.00 0.00 82 1009.9
20260507063029 11 72 0.0 4.8 0.00 0.00 0.00 83 1009.9
20260507062542 11 77 0.0 6.4 0.00 0.00 0.00 83 1009.9
20260507062037 11 63 4.8 9.7 0.00 0.00 0.00 83 1009.8
20260507061604 11 36 8.0 9.7 0.00 0.00 0.00 83 1008.2
20260507061036 11 120 4.8 9.7 0.00 0.00 0.00 84 1009.7
20260507060629 10 108 3.2 6.4 0.00 0.00 0.00 84 1008.1
20260507055528 10 103 3.2 8.0 0.00 0.00 0.00 84 1009.5
20260507055115 10 92 1.6 8.0 0.00 0.00 0.00 83 1007.9
20260507054551 10 103 3.2 8.0 0.00 0.00 0.00 83 1009.5
20260507054038 10 109 3.2 9.7 0.00 0.00 0.00 82 1009.5
20260507053611 10 108 4.8 9.7 0.00 0.00 0.00 82 1007.8
20260507053028 10 114 4.8 9.7 0.00 0.00 0.00 81 1009.5
20260507052555 10 122 4.8 9.7 0.00 0.00 0.00 81 1009.3
20260507052022 10 122 3.2 9.7 0.00 0.00 0.00 80 1009.2
20260507051126 10 83 4.8 9.7 0.00 0.00 0.00 79 1007.6
20260507050603 11 103 3.2 9.7 0.00 0.00 0.00 79 1007.6
20260507050041 11 79 4.8 9.7 0.00 0.00 0.00 78 1009.1
20260507045518 11 32 6.4 8.0 0.00 0.00 0.00 77 1009.0
20260507045037 11 77 4.8 8.0 0.00 0.00 0.00 77 1009.0
20260507044535 11 72 6.4 11.3 0.00 0.00 0.00 76 1009.0
20260507044029 11 111 3.2 11.3 0.00 0.00 0.00 75 1009.0
20260507043519 11 65 0.0 8.0 0.00 0.00 0.00 74 1008.9
20260507043035 11 89 6.4 8.0 0.00 0.00 0.00 74 1008.9
20260507042628 11 105 1.6 8.0 0.00 0.00 0.00 73 1007.3
20260507042106 11 76 4.8 8.0 0.00 0.00 0.00 71 1008.9
20260507041526 11 41 4.8 8.0 0.00 0.00 0.00 70 1008.8
20260507041041 11 72 3.2 9.7 0.00 0.00 0.00 70 1008.8
20260507040524 11 72 6.4 9.7 0.00 0.00 0.00 70 1008.8
20260507040056 11 82 3.2 8.0 0.00 0.00 0.00 69 1008.8
20260507035019 11 88 1.6 8.0 0.00 0.00 0.00 68 1008.8
20260507034537 12 69 3.2 9.7 0.00 0.00 0.00 67 1008.9
20260507034058 12 69 3.2 9.7 0.00 0.00 0.00 66 1008.9
20260507033105 12 41 4.8 8.0 0.00 0.00 0.00 63 1007.3
20260507032527 12 61 3.2 6.4 0.00 0.00 0.00 62 1008.9
20260507032033 12 66 1.6 4.8 0.00 0.00 0.00 61 1009.0
20260507031624 12 50 0.0 4.8 0.00 0.00 0.00 60 1007.4
20260507031037 12 58 1.6 6.4 0.00 0.00 0.00 60 1008.9
20260507030537 12 36 0.0 6.4 0.00 0.00 0.00 59 1008.9
20260507030049 12 67 4.8 6.4 0.00 0.00 0.00 59 1009.0
20260507025531 12 50 0.0 6.4 0.00 0.00 0.00 59 1009.1
20260507025102 12 94 0.0 6.4 0.00 0.00 0.00 58 1009.0
20260507024555 12 75 3.2 6.4 0.00 0.00 0.00 57 1008.9
20260507024019 13 68 3.2 6.4 0.00 0.00 0.00 56 1009.0
20260507023524 13 122 0.0 4.8 0.00 0.00 0.00 55 1009.0
20260507023029 12 73 3.2 4.8 0.00 0.00 0.00 55 1009.0
20260507022550 12 87 1.6 6.4 0.00 0.00 0.00 56 1009.0
20260507022041 13 70 3.2 6.4 0.00 0.00 0.00 56 1009.0
20260507021517 13 68 3.2 3.2 0.00 0.00 0.00 55 1009.0
20260507021038 13 80 0.0 0.0 0.00 0.00 0.00 54 1008.9
20260507020539 13 46 0.0 0.0 0.00 0.00 0.00 55 1009.0
20260507020043 13 284 0.0 0.0 0.00 0.00 0.00 54 1009.1
20260507015538 13 284 0.0 6.4 0.00 0.00 0.00 54 1009.0
20260507015022 13 219 0.0 6.4 0.00 0.00 0.00 55 1009.1
20260507014522 13 194 3.2 8.0 0.00 0.00 0.00 55 1009.2
20260507014032 13 205 0.0 8.0 0.00 0.00 0.00 54 1009.2
20260507013543 13 193 1.6 4.8 0.00 0.00 0.00 53 1009.1
20260507013018 13 172 0.0 3.2 0.00 0.00 0.00 53 1009.1
20260507012540 13 159 0.0 1.6 0.00 0.00 0.00 52 1009.0
20260507012042 13 139 0.0 3.2 0.00 0.00 0.00 51 1009.1
20260507011526 13 184 0.0 3.2 0.00 0.00 0.00 51 1009.0
20260507011022 13 217 1.6 3.2 0.00 0.00 0.00 50 1009.2
20260507010523 13 207 0.0 1.6 0.00 0.00 0.00 50 1009.1
20260507010104 13 183 1.6 3.2 0.00 0.00 0.00 50 1009.1
20260507005528 13 219 3.2 3.2 0.00 0.00 0.00 51 1009.1
20260507005023 13 214 1.6 3.2 0.00 0.00 0.00 52 1009.2
20260507004521 13 170 0.0 3.2 0.00 0.00 0.00 52 1009.3
20260507004038 13 156 0.0 3.2 0.00 0.00 0.00 52 1009.4
20260507003541 13 212 1.6 3.2 0.00 0.00 0.00 52 1009.4
20260507003026 13 160 0.0 0.0 0.00 0.00 0.00 52 1009.4
20260507002522 13 160 0.0 0.0 0.00 0.00 0.00 52 1009.4
20260507002020 13 93 0.0 3.2 0.00 0.00 0.00 51 1009.5
20260507001546 13 68 3.2 3.2 0.00 0.00 0.00 52 1009.5
20260507001037 13 110 0.0 0.0 0.00 0.00 0.00 53 1009.5
20260507000616 13 107 0.0 0.0 0.00 0.00 0.00 53 1007.9
20260507000106 13 108 0.0 3.2 0.00 0.00 0.00 53 1009.5
20260506235625 13 113 0.0 4.8 0.00 0.00 0.00 53 1007.9
20260506235039 13 108 0.0 4.8 0.00 0.00 0.00 53 1009.5
20260506234542 13 136 3.2 4.8 0.00 0.00 0.00 53 1009.5
20260506234036 13 124 0.0 3.2 0.00 0.00 0.00 54 1009.6
20260506233604 13 152 0.0 1.6 0.00 0.00 0.00 54 1007.9
20260506233043 13 119 0.0 0.0 0.00 0.00 0.00 53 1009.5
20260506232517 13 101 0.0 4.8 0.00 0.00 0.00 53 1009.4
20260506232045 13 120 0.0 19.3 0.00 0.00 0.00 53 1009.4
20260506231523 13 107 8.0 19.3 0.00 0.00 0.00 51 1009.5
20260506231031 13 205 0.0 0.0 0.00 0.00 0.00 50 1009.4
20260506230536 13 214 0.0 0.0 0.00 0.00 0.00 50 1009.5
20260506230049 14 107 0.0 0.0 0.00 0.00 0.00 50 1009.5
20260506225544 14 106 0.0 0.0 0.00 0.00 0.00 50 1009.5
20260506225022 15 97 0.0 3.2 0.00 0.00 0.00 49 1009.4
20260506224542 15 72 0.0 3.2 0.00 0.00 0.00 47 1009.4
20260506224110 15 77 0.0 0.0 0.00 0.00 0.00 43 1007.9
20260506223529 16 46 0.0 0.0 0.00 0.00 0.00 42 1009.4
20260506223045 16 318 0.0 0.0 0.00 0.00 0.00 41 1009.4
20260506222530 16 318 0.0 0.0 0.00 0.00 0.00 41 1009.4
20260506222026 16 285 0.0 0.0 0.00 0.00 0.00 41 1009.4
20260506221545 16 276 0.0 0.0 0.00 0.00 0.00 41 1009.4
20260506221052 16 316 0.0 0.0 0.00 0.00 0.00 41 1009.4
20260506220528 16 317 0.0 0.0 0.00 0.00 0.00 41 1009.4
20260506220116 16 338 0.0 0.0 0.00 0.00 0.00 40 1009.5
20260506215538 16 75 0.0 3.2 0.00 0.00 0.00 40 1009.5
20260506215033 16 312 0.0 3.2 0.00 0.00 0.00 40 1009.6
20260506214534 16 322 0.0 4.8 0.00 0.00 0.00 40 1009.6
20260506214035 16 312 0.0 4.8 0.00 0.00 0.00 40 1009.5
20260506213605 16 276 0.0 3.2 0.00 0.00 0.00 40 1008.0
20260506213021 16 281 0.0 3.2 0.00 0.00 0.00 40 1009.6
20260506212529 16 294 0.0 3.2 0.00 0.00 0.00 39 1009.6
20260506212035 16 289 1.6 3.2 0.00 0.00 0.00 38 1009.6
20260506211604 16 288 0.0 1.6 0.00 0.00 0.00 38 1008.0
20260506211022 17 317 0.0 1.6 0.00 0.00 0.00 38 1009.5
20260506210521 17 286 0.0 1.6 0.00 0.00 0.00 38 1009.5
20260506210100 17 271 0.0 1.6 0.00 0.00 0.00 37 1009.5
20260506205520 17 288 0.0 1.6 0.00 0.00 0.00 37 1009.5
20260506205037 17 286 0.0 3.2 0.00 0.00 0.00 37 1009.4
20260506204559 17 304 1.6 6.4 0.00 0.00 0.00 36 1009.4
20260506204054 17 293 0.0 6.4 0.00 0.00 0.00 36 1009.3
20260506203525 17 323 1.6 6.4 0.00 0.00 0.00 35 1009.3
20260506203034 17 300 0.0 4.8 0.00 0.00 0.00 34 1009.3
20260506202519 18 288 0.0 6.4 0.00 0.00 0.00 34 1009.3
20260506201030 18 8 0.0 4.8 0.00 0.00 0.00 33 1009.2
20260506200535 18 321 0.0 4.8 0.00 0.00 0.00 33 1009.1
20260506200052 18 280 1.6 3.2 0.00 0.00 0.00 33 1009.1
20260506195641 18 319 1.6 4.8 0.00 0.00 0.00 33 1007.5
20260506195054 18 318 0.0 4.8 0.00 0.00 0.00 33 1009.0
20260506194535 18 305 0.0 6.4 0.00 0.00 0.00 33 1009.0
20260506194032 18 319 3.2 4.8 0.00 0.00 0.00 33 1009.0
20260506193536 18 302 3.2 6.4 0.00 0.00 0.00 33 1009.0
20260506193029 18 335 3.2 6.4 0.00 0.00 0.00 33 1008.9
20260506192603 18 309 3.2 6.4 0.00 0.00 0.00 33 1007.4
20260506192019 18 309 3.2 6.4 0.00 0.00 0.00 33 1008.9
20260506191522 19 295 0.0 6.4 0.00 0.00 0.00 33 1008.9
20260506191045 19 310 0.0 4.8 0.00 0.00 0.00 33 1008.8
20260506190541 19 283 1.6 4.8 0.00 0.00 0.00 32 1008.9
20260506190056 19 317 0.0 6.4 0.00 0.00 0.00 32 1008.8
20260506185536 19 303 1.6 9.7 0.00 0.00 0.00 32 1008.9
20260506185045 20 273 4.8 9.7 0.00 0.00 0.00 31 1008.9
20260506184527 20 290 3.2 9.7 0.00 0.00 0.00 30 1008.9
20260506184102 21 352 4.8 9.7 0.00 0.00 0.00 29 1008.8
20260506183541 21 273 3.2 8.0 0.00 0.00 0.00 28 1008.8
20260506183021 21 273 0.0 6.4 0.00 0.00 0.00 28 1008.9
20260506182552 21 260 0.0 11.3 0.00 0.00 0.00 28 1008.8
20260506182018 21 108 0.0 11.3 0.00 0.00 0.00 28 1008.8
20260506181618 21 303 0.0 8.0 0.00 0.00 0.00 28 1007.2
20260506181032 21 270 1.6 9.7 0.00 0.00 0.00 28 1008.8
20260506180524 21 293 6.4 9.7 0.00 0.00 0.00 28 1008.8
20260506180052 21 312 0.0 9.7 0.00 0.00 0.00 28 1008.8
20260506175528 21 287 4.8 11.3 0.00 0.00 0.00 28 1008.8
20260506175017 21 338 4.8 11.3 0.00 0.00 0.00 28 1008.9
20260506174534 21 110 1.6 6.4 0.00 0.00 0.00 27 1009.0
20260506174052 21 271 3.2 6.4 0.00 0.00 0.00 27 1009.0
20260506173537 21 181 0.0 6.4 0.00 0.00 0.00 27 1009.0
20260506173036 21 284 0.0 11.3 0.00 0.00 0.00 27 1009.0
20260506172522 22 254 3.2 11.3 0.00 0.00 0.00 27 1009.1
20260506172032 22 222 6.4 9.7 0.00 0.00 0.00 26 1009.1
20260506171602 21 245 0.0 9.7 0.00 0.00 0.00 27 1009.0
20260506171109 21 276 1.6 9.7 0.00 0.00 0.00 26 1007.4
20260506170530 21 165 4.8 9.7 0.00 0.00 0.00 27 1009.1
20260506165528 22 238 4.8 6.4 0.00 0.00 0.00 26 1009.1
20260506165017 22 270 0.0 4.8 0.00 0.00 0.00 27 1009.1
20260506164623 22 125 1.6 4.8 0.00 0.00 0.00 25 1007.5
20260506164025 22 17 0.0 1.6 0.00 0.00 0.00 26 1009.2
20260506163147 21 322 3.2 9.7 0.00 0.00 0.00 27 1007.6
20260506162526 21 165 3.2 8.0 0.00 0.00 0.00 27 1009.2
20260506162116 22 297 4.8 11.3 0.00 0.00 0.00 26 1007.7
20260506161610 22 146 1.6 11.3 0.00 0.00 0.00 26 1007.7
20260506161039 22 269 1.6 8.0 0.00 0.00 0.00 26 1009.3
20260506160522 22 304 4.8 8.0 0.00 0.00 0.00 26 1009.3
20260506160057 22 290 0.0 12.9 0.00 0.00 0.00 26 1009.3
20260506155541 22 323 3.2 12.9 0.00 0.00 0.00 26 1009.3
20260506155040 22 126 3.2 11.3 0.00 0.00 0.00 26 1009.4
20260506154522 22 345 4.8 11.3 0.00 0.00 0.00 26 1009.5
20260506154017 22 27 3.2 8.0 0.00 0.00 0.00 26 1009.5
20260506153540 22 119 0.0 6.4 0.00 0.00 0.00 26 1009.6
20260506153022 22 345 1.6 8.0 0.00 0.00 0.00 27 1009.6
20260506152539 22 93 4.8 8.0 0.00 0.00 0.00 26 1009.6
20260506152028 22 93 1.6 6.4 0.00 0.00 0.00 26 1009.7
20260506151532 22 244 0.0 9.7 0.00 0.00 0.00 27 1009.7
20260506151051 22 317 3.2 9.7 0.00 0.00 0.00 26 1009.7
20260506150555 22 75 0.0 6.4 0.00 0.00 0.00 27 1009.8
20260506145528 22 265 1.6 11.3 0.00 0.00 0.00 28 1010.0
20260506144536 22 53 0.0 11.3 0.00 0.00 0.00 28 1010.1
20260506144029 21 13 0.0 12.9 0.00 0.00 0.00 29 1010.1
20260506143517 21 70 3.2 14.5 0.00 0.00 0.00 29 1010.2
20260506143041 21 285 6.4 14.5 0.00 0.00 0.00 30 1010.2
20260506142628 21 70 4.8 14.5 0.00 0.00 0.00 30 1008.8
20260506142023 21 65 3.2 14.5 0.00 0.00 0.00 31 1010.4
20260506141618 21 106 6.4 11.3 0.00 0.00 0.00 29 1008.9
20260506141016 21 311 1.6 11.3 0.00 0.00 0.00 29 1010.7
20260506140528 21 92 4.8 11.3 0.00 0.00 0.00 28 1010.7
20260506135516 21 245 3.2 14.5 0.00 0.00 0.00 30 1010.8
20260506134550 20 89 3.2 9.7 0.00 0.00 0.00 30 1010.8
20260506134033 20 134 1.6 4.8 0.00 0.00 0.00 31 1010.9
20260506133521 19 283 1.6 4.8 0.00 0.00 0.00 31 1011.0
20260506133028 19 105 0.0 6.4 0.00 0.00 0.00 32 1011.0
20260506132523 18 277 3.2 9.7 0.00 0.00 0.00 33 1011.0
20260506132036 18 241 6.4 11.3 0.00 0.00 0.00 33 1011.1
20260506131519 19 226 6.4 9.7 0.00 0.00 0.00 32 1011.1
20260506131049 20 208 4.8 8.0 0.00 0.00 0.00 32 1011.1
20260506130523 20 353 1.6 4.8 0.00 0.00 0.00 31 1011.2
20260506130042 20 330 0.0 9.7 0.00 0.00 0.00 32 1011.2
20260506125543 20 177 1.6 9.7 0.00 0.00 0.00 33 1011.2
20260506125033 20 139 4.8 9.7 0.00 0.00 0.00 31 1011.3
20260506124603 21 82 3.2 6.4 0.00 0.00 0.00 31 1011.3
20260506124041 21 113 4.8 6.4 0.00 0.00 0.00 31 1011.4